Time,TemperatureF,DewpointF,PressureIn,WindDirection,WindDirectionDegrees,WindSpeedMPH,WindSpeedGustMPH,Humidity,HourlyPrecipIn,Conditions,Clouds,dailyrainin,SoftwareType,DateUTC
2013-04-08 00:00:00,41.6,37.7,29.67,NE,34,0.0,0.0,86,0.00,,,0.10,Wunderground v.1.15,2013-04-08 05:00:00,
2013-04-08 00:05:00,41.6,37.7,29.67,NE,34,0.0,0.0,86,0.00,,,0.10,Wunderground v.1.15,2013-04-08 05:05:00,
2013-04-08 00:15:00,41.5,37.6,29.67,NNE,33,0.0,0.0,86,0.12,,,0.00,Wunderground v.1.15,2013-04-08 05:15:00,
2013-04-08 00:25:00,41.5,37.9,29.67,NNE,33,0.0,0.0,87,0.10,,,0.01,Wunderground v.1.15,2013-04-08 05:25:00,
2013-04-08 00:30:00,41.5,37.9,29.67,NNE,33,0.0,0.0,87,0.09,,,0.02,Wunderground v.1.15,2013-04-08 05:30:00,
2013-04-08 00:35:00,41.5,37.9,29.67,NNE,33,0.0,0.0,87,0.10,,,0.03,Wunderground v.1.15,2013-04-08 05:35:00,
2013-04-08 00:40:00,41.5,37.9,29.67,NNE,33,0.0,0.0,87,0.07,,,0.03,Wunderground v.1.15,2013-04-08 05:40:00,
2013-04-08 00:45:00,41.5,37.9,29.67,NNE,33,0.0,0.0,87,0.04,,,0.03,Wunderground v.1.15,2013-04-08 05:45:00,
2013-04-08 00:50:00,41.5,37.9,29.67,NNE,33,0.0,0.0,87,0.04,,,0.04,Wunderground v.1.15,2013-04-08 05:50:00,
2013-04-08 00:55:00,41.5,38.2,29.67,NNE,33,0.0,0.0,88,0.18,,,0.05,Wunderground v.1.15,2013-04-08 05:55:00,
2013-04-08 01:00:00,41.5,38.2,29.67,NNE,33,0.0,0.0,88,0.18,,,0.06,Wunderground v.1.15,2013-04-08 06:00:00,
2013-04-08 01:05:00,41.5,38.2,29.67,NNE,33,0.0,0.0,88,0.10,,,0.07,Wunderground v.1.15,2013-04-08 06:05:00,
2013-04-08 01:15:00,41.5,38.2,29.67,NNE,33,0.0,0.0,88,0.09,,,0.08,Wunderground v.1.15,2013-04-08 06:15:00,
2013-04-08 01:20:00,41.5,38.2,29.67,NNE,33,0.0,0.0,88,0.07,,,0.09,Wunderground v.1.15,2013-04-08 06:20:00,
2013-04-08 01:25:00,41.5,38.2,29.67,NNE,33,0.0,0.0,88,0.13,,,0.10,Wunderground v.1.15,2013-04-08 06:25:00,
2013-04-08 01:30:00,41.5,38.2,29.67,NNE,33,0.0,0.0,88,0.26,,,0.13,Wunderground v.1.15,2013-04-08 06:30:00,
2013-04-08 01:35:00,41.5,38.2,29.67,NNE,33,0.0,0.0,88,0.16,,,0.14,Wunderground v.1.15,2013-04-08 06:35:00,
2013-04-08 01:40:00,41.5,38.5,29.67,NNE,33,0.0,0.0,89,0.21,,,0.16,Wunderground v.1.15,2013-04-08 06:40:00,
2013-04-08 01:50:00,41.5,38.5,29.65,NNE,29,0.0,0.0,89,0.18,,,0.20,Wunderground v.1.15,2013-04-08 06:50:00,
2013-04-08 01:55:00,41.6,38.6,29.65,NNE,29,0.0,0.0,89,0.13,,,0.21,Wunderground v.1.15,2013-04-08 06:55:00,
2013-04-08 02:00:00,41.6,38.6,29.65,NNE,29,0.0,0.0,89,0.14,,,0.22,Wunderground v.1.15,2013-04-08 07:00:00,
2013-04-08 02:05:00,41.8,39.1,29.65,NNE,29,0.0,0.0,90,0.10,,,0.23,Wunderground v.1.15,2013-04-08 07:05:00,
2013-04-08 02:15:00,41.9,39.2,29.65,NNE,29,0.0,0.0,90,0.08,,,0.25,Wunderground v.1.15,2013-04-08 07:15:00,
2013-04-08 02:20:00,41.9,39.2,29.65,NNE,29,0.0,0.0,90,0.15,,,0.26,Wunderground v.1.15,2013-04-08 07:20:00,
2013-04-08 02:25:00,41.9,39.2,29.65,NNE,29,0.0,0.0,90,0.30,,,0.28,Wunderground v.1.15,2013-04-08 07:25:00,
2013-04-08 02:35:00,41.9,39.2,29.64,NNE,29,0.0,0.0,90,0.20,,,0.33,Wunderground v.1.15,2013-04-08 07:35:00,
2013-04-08 02:40:00,41.9,39.2,29.64,NNE,29,0.0,0.0,90,0.16,,,0.34,Wunderground v.1.15,2013-04-08 07:40:00,
2013-04-08 02:45:00,41.9,39.2,29.64,NNE,29,0.0,0.0,90,0.20,,,0.36,Wunderground v.1.15,2013-04-08 07:45:00,
2013-04-08 02:55:00,42.1,39.7,29.64,NNE,30,0.0,0.0,91,0.16,,,0.39,Wunderground v.1.15,2013-04-08 07:55:00,
2013-04-08 03:00:00,42.2,39.8,29.64,ENE,77,0.0,0.0,91,0.18,,,0.40,Wunderground v.1.15,2013-04-08 08:00:00,
2013-04-08 03:05:00,42.2,39.8,29.64,NNE,33,0.0,0.0,91,0.14,,,0.41,Wunderground v.1.15,2013-04-08 08:05:00,
2013-04-08 03:15:00,42.2,39.8,29.63,NE,46,0.0,0.0,91,0.10,,,0.43,Wunderground v.1.15,2013-04-08 08:15:00,
2013-04-08 03:20:00,42.2,39.8,29.63,ESE,120,0.0,0.0,91,0.14,,,0.44,Wunderground v.1.15,2013-04-08 08:20:00,
2013-04-08 03:30:00,42.1,39.7,29.62,NE,54,0.0,0.0,91,0.24,,,0.48,Wunderground v.1.15,2013-04-08 08:30:00,
2013-04-08 03:35:00,41.9,39.5,29.62,East,92,0.0,0.0,91,0.09,,,0.48,Wunderground v.1.15,2013-04-08 08:35:00,
2013-04-08 03:40:00,41.8,39.4,29.62,East,92,0.0,0.0,91,0.08,,,0.49,Wunderground v.1.15,2013-04-08 08:40:00,
2013-04-08 03:50:00,41.6,39.4,29.63,East,96,0.0,0.0,92,0.08,,,0.50,Wunderground v.1.15,2013-04-08 08:50:00,
2013-04-08 03:55:00,41.6,39.4,29.63,East,96,0.0,0.0,92,0.05,,,0.50,Wunderground v.1.15,2013-04-08 08:55:00,
2013-04-08 04:05:00,41.6,39.4,29.62,East,94,0.0,0.0,92,0.00,,,0.50,Wunderground v.1.15,2013-04-08 09:05:00,
2013-04-08 04:15:00,41.6,39.4,29.62,ESE,110,0.0,0.0,92,0.00,,,0.51,Wunderground v.1.15,2013-04-08 09:15:00,
2013-04-08 04:25:00,41.5,39.3,29.62,ESE,111,0.0,0.0,92,0.11,,,0.53,Wunderground v.1.15,2013-04-08 09:25:00,
2013-04-08 04:30:00,41.5,39.3,29.61,WSW,237,0.0,0.0,92,0.08,,,0.54,Wunderground v.1.15,2013-04-08 09:30:00,
2013-04-08 04:35:00,41.3,39.2,29.61,WSW,237,0.0,0.0,92,0.08,,,0.54,Wunderground v.1.15,2013-04-08 09:35:00,
2013-04-08 04:45:00,41.3,39.2,29.60,ESE,104,0.0,0.0,92,0.09,,,0.56,Wunderground v.1.15,2013-04-08 09:45:00,
2013-04-08 04:50:00,41.3,39.2,29.60,WSW,239,0.0,0.0,92,0.07,,,0.56,Wunderground v.1.15,2013-04-08 09:50:00,
2013-04-08 04:55:00,41.2,39.3,29.60,WSW,239,0.0,0.0,93,0.05,,,0.56,Wunderground v.1.15,2013-04-08 09:55:00,
2013-04-08 05:00:00,41.2,39.3,29.60,WSW,239,0.0,0.0,93,0.00,,,0.56,Wunderground v.1.15,2013-04-08 10:00:00,
2013-04-08 05:05:00,41.2,39.3,29.60,ENE,65,0.0,0.0,93,0.00,,,0.56,Wunderground v.1.15,2013-04-08 10:05:00,
2013-04-08 05:15:00,41.2,39.3,29.59,SW,233,0.0,0.0,93,0.00,,,0.56,Wunderground v.1.15,2013-04-08 10:15:00,
2013-04-08 05:20:00,41.2,39.3,29.59,NE,40,0.0,0.0,93,0.00,,,0.56,Wunderground v.1.15,2013-04-08 10:20:00,
2013-04-08 05:25:00,41.2,39.3,29.59,NE,40,0.0,0.0,93,0.00,,,0.56,Wunderground v.1.15,2013-04-08 10:25:00,
2013-04-08 05:35:00,41.2,39.3,29.59,SSW,197,0.0,0.0,93,0.00,,,0.56,Wunderground v.1.15,2013-04-08 10:35:00,
2013-04-08 05:45:00,41.2,39.3,29.59,SSW,197,0.0,0.0,93,0.00,,,0.56,Wunderground v.1.15,2013-04-08 10:45:00,
2013-04-08 05:55:00,41.2,39.3,29.59,SSW,195,0.0,0.0,93,0.00,,,0.56,Wunderground v.1.15,2013-04-08 10:55:00,
2013-04-08 06:00:00,41.2,39.3,29.59,East,93,0.0,0.0,93,0.00,,,0.56,Wunderground v.1.15,2013-04-08 11:00:00,
2013-04-08 06:05:00,41.2,39.3,29.59,ENE,72,0.0,0.0,93,0.00,,,0.56,Wunderground v.1.15,2013-04-08 11:05:00,
2013-04-08 06:15:00,41.1,39.2,29.59,West,276,0.0,0.0,93,0.00,,,0.56,Wunderground v.1.15,2013-04-08 11:15:00,
2013-04-08 06:20:00,41.1,39.2,29.59,SSW,211,0.0,0.0,93,0.00,,,0.56,Wunderground v.1.15,2013-04-08 11:20:00,
2013-04-08 06:30:00,41.1,39.2,29.59,East,84,0.0,0.0,93,0.00,,,0.56,Wunderground v.1.15,2013-04-08 11:30:00,
2013-04-08 06:40:00,41.1,39.2,29.59,East,99,0.0,0.0,93,0.00,,,0.56,Wunderground v.1.15,2013-04-08 11:40:00,
2013-04-08 06:45:00,40.9,39.0,29.60,SSW,210,0.0,0.0,93,0.00,,,0.56,Wunderground v.1.15,2013-04-08 11:45:00,
2013-04-08 06:50:00,40.9,39.0,29.60,SSW,210,0.0,0.0,93,0.00,,,0.56,Wunderground v.1.15,2013-04-08 11:50:00,
2013-04-08 06:55:00,40.9,39.0,29.60,SSW,207,0.0,0.0,93,0.00,,,0.56,Wunderground v.1.15,2013-04-08 11:55:00,
2013-04-08 07:05:00,41.1,39.2,29.61,SSW,207,0.0,0.0,93,0.00,,,0.56,Wunderground v.1.15,2013-04-08 12:05:00,
2013-04-08 07:15:00,40.9,39.0,29.61,SSW,207,0.0,0.0,93,0.00,,,0.56,Wunderground v.1.15,2013-04-08 12:15:00,
2013-04-08 07:25:00,40.9,39.0,29.61,East,79,0.0,0.0,93,0.00,,,0.56,Wunderground v.1.15,2013-04-08 12:25:00,
2013-04-08 07:30:00,40.9,39.0,29.62,East,79,0.0,0.0,93,0.00,,,0.56,Wunderground v.1.15,2013-04-08 12:30:00,
2013-04-08 07:35:00,40.8,38.9,29.62,SSW,200,0.0,0.0,93,0.00,,,0.56,Wunderground v.1.15,2013-04-08 12:35:00,
2013-04-08 07:45:00,40.8,38.9,29.63,SSW,200,0.0,0.0,93,0.00,,,0.56,Wunderground v.1.15,2013-04-08 12:45:00,
2013-04-08 07:50:00,40.8,38.9,29.63,SSW,200,0.0,0.0,93,0.00,,,0.56,Wunderground v.1.15,2013-04-08 12:50:00,
2013-04-08 08:00:00,40.8,38.9,29.64,SSW,200,0.0,0.0,93,0.00,,,0.56,Wunderground v.1.15,2013-04-08 13:00:00,
2013-04-08 08:05:00,40.6,38.7,29.64,SSW,200,0.0,0.0,93,0.00,,,0.56,Wunderground v.1.15,2013-04-08 13:05:00,
2013-04-08 08:15:00,40.6,38.7,29.64,SSW,200,0.0,0.0,93,0.00,,,0.56,Wunderground v.1.15,2013-04-08 13:15:00,
2013-04-08 08:20:00,40.6,38.7,29.64,ESE,122,0.0,0.0,93,0.00,,,0.56,Wunderground v.1.15,2013-04-08 13:20:00,
2013-04-08 08:30:00,40.6,38.7,29.65,ESE,122,0.0,0.0,93,0.00,,,0.56,Wunderground v.1.15,2013-04-08 13:30:00,
2013-04-08 08:35:00,40.6,38.7,29.65,ESE,122,0.0,0.0,93,0.00,,,0.56,Wunderground v.1.15,2013-04-08 13:35:00,
2013-04-08 08:40:00,40.6,38.7,29.65,ESE,122,0.0,0.0,93,0.00,,,0.56,Wunderground v.1.15,2013-04-08 13:40:00,
2013-04-08 08:45:00,40.6,38.7,29.65,ESE,122,0.0,0.0,93,0.00,,,0.56,Wunderground v.1.15,2013-04-08 13:45:00,
2013-04-08 08:50:00,40.6,38.7,29.65,ESE,108,0.0,0.0,93,0.00,,,0.56,Wunderground v.1.15,2013-04-08 13:50:00,
2013-04-08 08:55:00,40.6,38.7,29.65,SSW,193,0.0,0.0,93,0.00,,,0.56,Wunderground v.1.15,2013-04-08 13:55:00,
2013-04-08 09:00:00,40.6,38.7,29.65,SSW,193,0.0,0.0,93,0.00,,,0.56,Wunderground v.1.15,2013-04-08 14:00:00,
2013-04-08 09:05:00,40.6,39.0,29.65,SSW,193,0.0,0.0,94,0.00,,,0.56,Wunderground v.1.15,2013-04-08 14:05:00,
2013-04-08 09:15:00,40.8,39.2,29.65,SSW,193,0.0,0.0,94,0.00,,,0.56,Wunderground v.1.15,2013-04-08 14:15:00,
2013-04-08 09:20:00,40.9,39.3,29.65,SSW,193,0.0,0.0,94,0.00,,,0.56,Wunderground v.1.15,2013-04-08 14:20:00,
2013-04-08 09:30:00,41.1,39.5,29.66,South,189,0.0,0.0,94,0.00,,,0.56,Wunderground v.1.15,2013-04-08 14:30:00,
2013-04-08 09:40:00,41.1,39.5,29.66,SSE,155,0.0,0.0,94,0.00,,,0.56,Wunderground v.1.15,2013-04-08 14:40:00,
2013-04-08 09:45:00,41.2,39.6,29.66,SSE,155,0.0,0.0,94,0.00,,,0.56,Wunderground v.1.15,2013-04-08 14:45:00,
2013-04-08 09:50:00,41.2,39.6,29.66,SSE,155,0.0,0.0,94,0.00,,,0.56,Wunderground v.1.15,2013-04-08 14:50:00,
2013-04-08 09:55:00,41.2,39.6,29.66,SSE,147,0.0,0.0,94,0.00,,,0.56,Wunderground v.1.15,2013-04-08 14:55:00,
2013-04-08 10:00:00,41.3,39.4,29.66,SSE,147,0.0,0.0,93,0.00,,,0.56,Wunderground v.1.15,2013-04-08 15:00:00,
2013-04-08 10:05:00,41.3,39.7,29.66,South,188,0.0,0.0,94,0.00,,,0.56,Wunderground v.1.15,2013-04-08 15:05:00,
2013-04-08 10:15:00,41.6,40.0,29.66,ENE,70,0.0,0.0,94,0.00,,,0.56,Wunderground v.1.15,2013-04-08 15:15:00,
2013-04-08 10:20:00,41.8,40.2,29.66,ENE,70,0.0,0.0,94,0.00,,,0.56,Wunderground v.1.15,2013-04-08 15:20:00,
2013-04-08 10:30:00,41.9,40.0,29.67,ENE,70,0.0,0.0,93,0.00,,,0.56,Wunderground v.1.15,2013-04-08 15:30:00,
2013-04-08 10:35:00,41.9,40.0,29.67,ENE,70,0.0,0.0,93,0.00,,,0.56,Wunderground v.1.15,2013-04-08 15:35:00,
2013-04-08 10:40:00,42.1,40.2,29.67,ENE,70,0.0,0.0,93,0.00,,,0.56,Wunderground v.1.15,2013-04-08 15:40:00,
2013-04-08 10:45:00,42.1,40.2,29.68,ENE,70,0.0,0.0,93,0.00,,,0.56,Wunderground v.1.15,2013-04-08 15:45:00,
2013-04-08 10:55:00,42.2,40.3,29.68,ESE,119,0.0,0.0,93,0.00,,,0.56,Wunderground v.1.15,2013-04-08 15:55:00,
2013-04-08 11:00:00,42.2,40.3,29.68,ESE,119,0.0,0.0,93,0.00,,,0.56,Wunderground v.1.15,2013-04-08 16:00:00,
2013-04-08 11:05:00,42.1,40.2,29.68,ESE,119,0.0,0.0,93,0.00,,,0.56,Wunderground v.1.15,2013-04-08 16:05:00,
2013-04-08 11:15:00,42.2,40.3,29.69,ESE,119,0.0,0.0,93,0.00,,,0.56,Wunderground v.1.15,2013-04-08 16:15:00,
2013-04-08 11:25:00,42.2,40.3,29.69,WSW,250,0.0,0.0,93,0.00,,,0.56,Wunderground v.1.15,2013-04-08 16:25:00,
2013-04-08 11:30:00,42.5,40.6,29.68,West,262,0.0,0.0,93,0.00,,,0.56,Wunderground v.1.15,2013-04-08 16:30:00,
2013-04-08 11:40:00,42.6,40.4,29.68,SW,229,0.0,0.0,92,0.00,,,0.56,Wunderground v.1.15,2013-04-08 16:40:00,
2013-04-08 11:45:00,42.6,40.4,29.69,WSW,240,0.0,0.0,92,0.00,,,0.56,Wunderground v.1.15,2013-04-08 16:45:00,
2013-04-08 11:55:00,42.8,40.6,29.69,NE,37,0.0,0.0,92,0.00,,,0.56,Wunderground v.1.15,2013-04-08 16:55:00,
2013-04-08 12:00:00,42.8,40.6,29.69,WSW,246,0.0,0.0,92,0.00,,,0.56,Wunderground v.1.15,2013-04-08 17:00:00,
2013-04-08 12:05:00,42.8,40.4,29.69,East,101,0.0,0.0,91,0.00,,,0.56,Wunderground v.1.15,2013-04-08 17:05:00,
2013-04-08 12:15:00,43.1,40.7,29.70,WNW,293,0.0,0.0,91,0.00,,,0.56,Wunderground v.1.15,2013-04-08 17:15:00,
2013-04-08 12:20:00,43.1,40.7,29.70,SE,146,0.0,0.0,91,0.00,,,0.56,Wunderground v.1.15,2013-04-08 17:20:00,
2013-04-08 12:25:00,43.1,40.4,29.70,SE,141,0.0,0.0,90,0.00,,,0.56,Wunderground v.1.15,2013-04-08 17:25:00,
2013-04-08 12:30:00,43.2,40.5,29.70,WNW,284,0.0,0.0,90,0.00,,,0.56,Wunderground v.1.15,2013-04-08 17:30:00,
2013-04-08 12:35:00,43.2,40.5,29.70,East,101,0.0,0.0,90,0.00,,,0.56,Wunderground v.1.15,2013-04-08 17:35:00,
2013-04-08 12:40:00,43.3,40.3,29.70,SSW,197,0.0,0.0,89,0.00,,,0.56,Wunderground v.1.15,2013-04-08 17:40:00,
2013-04-08 12:50:00,44.1,40.8,29.70,West,266,0.0,0.0,88,0.00,,,0.56,Wunderground v.1.15,2013-04-08 17:50:00,
2013-04-08 12:55:00,43.9,40.6,29.70,SSE,156,0.0,0.0,88,0.00,,,0.56,Wunderground v.1.15,2013-04-08 17:55:00,
2013-04-08 13:00:00,44.1,40.8,29.72,SSE,157,0.0,0.0,88,0.00,,,0.56,Wunderground v.1.15,2013-04-08 18:00:00,
2013-04-08 13:05:00,44.1,40.5,29.72,ENE,60,0.0,0.0,87,0.00,,,0.56,Wunderground v.1.15,2013-04-08 18:05:00,
2013-04-08 13:15:00,44.1,40.5,29.72,ENE,63,0.0,0.0,87,0.00,,,0.56,Wunderground v.1.15,2013-04-08 18:15:00,
2013-04-08 13:25:00,44.2,40.6,29.72,SSW,200,0.0,0.0,87,0.00,,,0.56,Wunderground v.1.15,2013-04-08 18:25:00,
2013-04-08 13:30:00,44.3,40.7,29.72,SSW,199,0.0,0.0,87,0.00,,,0.56,Wunderground v.1.15,2013-04-08 18:30:00,
2013-04-08 13:35:00,44.5,40.6,29.72,East,98,0.0,0.0,86,0.00,,,0.56,Wunderground v.1.15,2013-04-08 18:35:00,
2013-04-08 13:40:00,44.5,40.6,29.72,South,189,0.0,0.0,86,0.00,,,0.56,Wunderground v.1.15,2013-04-08 18:40:00,
2013-04-08 13:45:00,44.6,40.7,29.73,SW,216,0.0,0.0,86,0.00,,,0.56,Wunderground v.1.15,2013-04-08 18:45:00,
2013-04-08 13:55:00,44.8,40.6,29.73,SW,236,0.0,0.0,85,0.00,,,0.56,Wunderground v.1.15,2013-04-08 18:55:00,
2013-04-08 14:00:00,44.9,40.7,29.73,West,275,0.0,0.0,85,0.00,,,0.56,Wunderground v.1.15,2013-04-08 19:00:00,
2013-04-08 14:06:00,44.9,40.7,29.73,West,267,0.0,0.0,85,0.00,,,0.56,Wunderground v.1.15,2013-04-08 19:06:00,
2013-04-08 14:15:00,45.1,40.9,29.73,West,264,0.0,0.0,85,0.00,,,0.56,Wunderground v.1.15,2013-04-08 19:15:00,
2013-04-08 14:20:00,44.9,40.4,29.73,SSW,192,0.0,0.0,84,0.00,,,0.56,Wunderground v.1.15,2013-04-08 19:20:00,
2013-04-08 14:30:00,45.1,40.6,29.73,South,191,0.0,0.0,84,0.00,,,0.56,Wunderground v.1.15,2013-04-08 19:30:00,
2013-04-08 14:35:00,45.1,40.6,29.73,SSE,159,0.0,0.0,84,0.00,,,0.56,Wunderground v.1.15,2013-04-08 19:35:00,
2013-04-08 14:45:00,45.1,40.2,29.74,SW,227,0.0,0.0,83,0.00,,,0.56,Wunderground v.1.15,2013-04-08 19:45:00,
2013-04-08 14:50:00,45.1,40.2,29.74,SSW,210,0.0,0.0,83,0.00,,,0.56,Wunderground v.1.15,2013-04-08 19:50:00,
2013-04-08 14:55:00,44.9,40.0,29.74,SW,219,0.0,0.0,83,0.00,,,0.56,Wunderground v.1.15,2013-04-08 19:55:00,
2013-04-08 15:00:00,45.1,40.2,29.73,SW,219,0.0,0.0,83,0.00,,,0.56,Wunderground v.1.15,2013-04-08 20:00:00,
2013-04-08 15:05:00,45.1,40.2,29.73,SW,219,0.0,0.0,83,0.00,,,0.56,Wunderground v.1.15,2013-04-08 20:05:00,
2013-04-08 15:15:00,45.4,40.5,29.74,SSW,201,0.0,0.0,83,0.00,,,0.56,Wunderground v.1.15,2013-04-08 20:15:00,
2013-04-08 15:20:00,45.4,40.5,29.74,SSW,197,0.0,0.0,83,0.00,,,0.56,Wunderground v.1.15,2013-04-08 20:20:00,
2013-04-08 15:25:00,45.4,40.2,29.74,SSW,203,0.0,0.0,82,0.00,,,0.56,Wunderground v.1.15,2013-04-08 20:25:00,
2013-04-08 15:35:00,45.4,40.2,29.73,WSW,238,0.0,0.0,82,0.00,,,0.56,Wunderground v.1.15,2013-04-08 20:35:00,
2013-04-08 15:40:00,45.2,40.0,29.73,SSW,200,0.0,0.0,82,0.00,,,0.56,Wunderground v.1.15,2013-04-08 20:40:00,
2013-04-08 15:50:00,45.2,40.0,29.73,West,274,0.0,0.0,82,0.00,,,0.56,Wunderground v.1.15,2013-04-08 20:50:00,
2013-04-08 15:55:00,45.4,40.2,29.73,WNW,302,0.0,0.0,82,0.00,,,0.56,Wunderground v.1.15,2013-04-08 20:55:00,
2013-04-08 16:05:00,45.5,40.0,29.73,West,265,0.0,0.0,81,0.00,,,0.56,Wunderground v.1.15,2013-04-08 21:05:00,
2013-04-08 16:15:00,45.8,40.3,29.74,SW,226,0.0,0.0,81,0.00,,,0.56,Wunderground v.1.15,2013-04-08 21:15:00,
2013-04-08 16:20:00,45.8,40.3,29.74,South,191,0.0,0.0,81,0.00,,,0.56,Wunderground v.1.15,2013-04-08 21:20:00,
2013-04-08 16:25:00,45.8,40.3,29.74,ESE,115,0.0,0.0,81,0.00,,,0.56,Wunderground v.1.15,2013-04-08 21:25:00,
2013-04-08 16:30:00,45.8,40.3,29.75,NNW,333,0.0,0.0,81,0.00,,,0.56,Wunderground v.1.15,2013-04-08 21:30:00,
2013-04-08 16:35:00,45.7,39.9,29.75,WSW,254,0.0,0.0,80,0.00,,,0.56,Wunderground v.1.15,2013-04-08 21:35:00,
2013-04-08 16:40:00,45.7,39.9,29.75,West,271,0.0,0.0,80,0.00,,,0.56,Wunderground v.1.15,2013-04-08 21:40:00,
2013-04-08 16:45:00,45.7,40.2,29.76,WNW,288,0.0,0.0,81,0.00,,,0.56,Wunderground v.1.15,2013-04-08 21:45:00,
2013-04-08 16:55:00,45.5,40.0,29.76,SW,229,0.0,0.0,81,0.00,,,0.56,Wunderground v.1.15,2013-04-08 21:55:00,
2013-04-08 17:05:00,45.4,39.9,29.78,SW,229,0.0,0.0,81,0.00,,,0.56,Wunderground v.1.15,2013-04-08 22:05:00,
2013-04-08 17:15:00,45.4,39.9,29.78,SW,219,0.0,0.0,81,0.00,,,0.56,Wunderground v.1.15,2013-04-08 22:15:00,
2013-04-08 17:25:00,45.4,39.9,29.78,South,174,0.0,0.0,81,0.00,,,0.56,Wunderground v.1.15,2013-04-08 22:25:00,
2013-04-08 17:30:00,45.2,39.7,29.80,West,267,0.0,0.0,81,0.00,,,0.56,Wunderground v.1.15,2013-04-08 22:30:00,
2013-04-08 17:40:00,45.2,39.7,29.80,West,261,0.0,0.0,81,0.00,,,0.56,Wunderground v.1.15,2013-04-08 22:40:00,
2013-04-08 17:45:00,45.1,39.6,29.81,South,172,0.0,0.0,81,0.00,,,0.56,Wunderground v.1.15,2013-04-08 22:45:00,
2013-04-08 17:50:00,45.1,39.6,29.81,SSW,193,0.0,0.0,81,0.00,,,0.56,Wunderground v.1.15,2013-04-08 22:50:00,
2013-04-08 18:00:00,44.9,39.7,29.81,SW,227,0.0,0.0,82,0.00,,,0.56,Wunderground v.1.15,2013-04-08 23:00:00,
2013-04-08 18:10:00,44.8,39.6,29.81,SW,221,0.0,0.0,82,0.00,,,0.56,Wunderground v.1.15,2013-04-08 23:10:00,
2013-04-08 18:15:00,44.8,39.6,29.80,SW,222,0.0,0.0,82,0.00,,,0.56,Wunderground v.1.15,2013-04-08 23:15:00,
2013-04-08 18:20:00,44.6,39.4,29.80,SW,220,0.0,0.0,82,0.00,,,0.56,Wunderground v.1.15,2013-04-08 23:20:00,
2013-04-08 18:25:00,44.6,39.8,29.80,SW,228,0.0,0.0,83,0.00,,,0.56,Wunderground v.1.15,2013-04-08 23:25:00,
2013-04-08 18:30:00,44.5,39.7,29.83,WSW,257,0.0,0.0,83,0.00,,,0.56,Wunderground v.1.15,2013-04-08 23:30:00,
2013-04-08 18:35:00,44.5,39.7,29.83,ESE,122,0.0,0.0,83,0.00,,,0.56,Wunderground v.1.15,2013-04-08 23:35:00,
2013-04-08 18:40:00,44.2,39.4,29.83,WNW,288,0.0,0.0,83,0.00,,,0.56,Wunderground v.1.15,2013-04-08 23:40:00,
2013-04-08 18:45:00,44.1,39.3,29.84,WNW,297,0.0,0.0,83,0.00,,,0.56,Wunderground v.1.15,2013-04-08 23:45:00,
2013-04-08 18:55:00,43.6,39.1,29.84,SW,218,0.0,0.0,84,0.00,,,0.56,Wunderground v.1.15,2013-04-08 23:55:00,
2013-04-08 19:00:00,43.5,39.0,29.86,SSW,211,0.0,0.0,84,0.00,,,0.56,Wunderground v.1.15,2013-04-09 00:00:00,
2013-04-08 19:05:00,43.3,39.1,29.86,SSW,195,0.0,0.0,85,0.00,,,0.56,Wunderground v.1.15,2013-04-09 00:05:00,
2013-04-08 19:20:00,43.2,39.0,29.86,SW,224,0.0,0.0,85,0.00,,,0.56,Wunderground v.1.15,2013-04-09 00:20:00,
2013-04-08 19:30:00,42.9,38.7,29.87,WSW,255,0.0,0.0,85,0.00,,,0.56,Wunderground v.1.15,2013-04-09 00:30:00,
2013-04-08 19:35:00,42.8,38.6,29.87,SW,216,0.0,0.0,85,0.00,,,0.56,Wunderground v.1.15,2013-04-09 00:35:00,
2013-04-08 19:40:00,42.5,38.3,29.87,SW,233,0.0,0.0,85,0.00,,,0.56,Wunderground v.1.15,2013-04-09 00:40:00,
2013-04-08 19:45:00,42.3,38.1,29.88,SW,225,0.0,0.0,85,0.00,,,0.56,Wunderground v.1.15,2013-04-09 00:45:00,
2013-04-08 19:50:00,42.2,38.0,29.88,SW,225,0.0,0.0,85,0.00,,,0.56,Wunderground v.1.15,2013-04-09 00:50:00,
2013-04-08 19:55:00,42.1,38.2,29.88,SW,225,0.0,0.0,86,0.00,,,0.56,Wunderground v.1.15,2013-04-09 00:55:00,
2013-04-08 20:05:00,41.8,37.9,29.90,ENE,60,0.0,0.0,86,0.00,,,0.56,Wunderground v.1.15,2013-04-09 01:05:00,
2013-04-08 20:15:00,41.6,37.7,29.91,West,272,0.0,0.0,86,0.00,,,0.56,Wunderground v.1.15,2013-04-09 01:15:00,
2013-04-08 20:20:00,41.6,37.7,29.91,SW,222,0.0,0.0,86,0.00,,,0.56,Wunderground v.1.15,2013-04-09 01:20:00,
2013-04-08 20:30:00,41.3,37.7,29.91,WSW,237,0.0,0.0,87,0.00,,,0.56,Wunderground v.1.15,2013-04-09 01:30:00,
2013-04-08 20:35:00,41.3,37.7,29.91,SW,214,0.0,0.0,87,0.00,,,0.56,Wunderground v.1.15,2013-04-09 01:35:00,
2013-04-08 20:40:00,41.3,37.7,29.91,WNW,286,0.0,0.0,87,0.00,,,0.56,Wunderground v.1.15,2013-04-09 01:40:00,
2013-04-08 20:45:00,41.2,37.6,29.91,SW,233,0.0,0.0,87,0.00,,,0.56,Wunderground v.1.15,2013-04-09 01:45:00,
2013-04-08 20:55:00,41.1,37.8,29.91,WSW,239,0.0,0.0,88,0.00,,,0.56,Wunderground v.1.15,2013-04-09 01:55:00,
2013-04-08 21:00:00,41.1,37.8,29.91,SSW,195,0.0,0.0,88,0.00,,,0.56,Wunderground v.1.15,2013-04-09 02:00:00,
2013-04-08 21:05:00,40.9,37.6,29.91,WSW,245,0.0,0.0,88,0.00,,,0.56,Wunderground v.1.15,2013-04-09 02:05:00,
2013-04-08 21:15:00,40.8,37.5,29.91,West,271,0.0,0.0,88,0.00,,,0.56,Wunderground v.1.15,2013-04-09 02:15:00,
2013-04-08 21:25:00,40.6,37.3,29.91,SW,214,0.0,0.0,88,0.00,,,0.56,Wunderground v.1.15,2013-04-09 02:25:00,
2013-04-08 21:30:00,40.6,37.3,29.91,WSW,241,0.0,0.0,88,0.00,,,0.56,Wunderground v.1.15,2013-04-09 02:30:00,
2013-04-08 21:35:00,40.5,37.2,29.91,SW,219,0.0,0.0,88,0.00,,,0.56,Wunderground v.1.15,2013-04-09 02:35:00,
2013-04-08 21:45:00,40.5,37.2,29.92,SW,227,0.0,0.0,88,0.00,,,0.56,Wunderground v.1.15,2013-04-09 02:45:00,
2013-04-08 21:55:00,40.3,37.0,29.92,WNW,284,0.0,0.0,88,0.00,,,0.56,Wunderground v.1.15,2013-04-09 02:55:00,
2013-04-08 22:00:00,40.3,37.0,29.93,WNW,283,0.0,0.0,88,0.00,,,0.56,Wunderground v.1.15,2013-04-09 03:00:00,
2013-04-08 22:05:00,40.2,36.9,29.93,ENE,67,0.0,0.0,88,0.00,,,0.56,Wunderground v.1.15,2013-04-09 03:05:00,
2013-04-08 22:15:00,40.2,36.6,29.93,ENE,69,0.0,0.0,87,0.00,,,0.56,Wunderground v.1.15,2013-04-09 03:15:00,
2013-04-08 22:25:00,40.2,36.6,29.93,West,269,0.0,0.0,87,0.00,,,0.56,Wunderground v.1.15,2013-04-09 03:25:00,
2013-04-08 22:30:00,40.2,36.6,29.93,SW,218,0.0,0.0,87,0.00,,,0.56,Wunderground v.1.15,2013-04-09 03:30:00,
2013-04-08 22:35:00,40.2,36.6,29.93,North,6,0.0,0.0,87,0.00,,,0.56,Wunderground v.1.15,2013-04-09 03:35:00,
2013-04-08 22:45:00,40.2,36.6,29.95,West,279,0.0,0.0,87,0.00,,,0.56,Wunderground v.1.15,2013-04-09 03:45:00,
2013-04-08 22:50:00,40.2,36.3,29.95,East,79,0.0,0.0,86,0.00,,,0.56,Wunderground v.1.15,2013-04-09 03:50:00,
2013-04-08 22:55:00,40.2,36.3,29.95,SW,236,0.0,0.0,86,0.00,,,0.56,Wunderground v.1.15,2013-04-09 03:55:00,
2013-04-08 23:00:00,40.2,36.3,29.96,North,358,0.0,0.0,86,0.00,,,0.56,Wunderground v.1.15,2013-04-09 04:00:00,
2013-04-08 23:06:00,40.2,36.1,29.96,West,262,0.0,0.0,85,0.00,,,0.56,Wunderground v.1.15,2013-04-09 04:06:00,
2013-04-08 23:10:00,40.2,36.1,29.96,WNW,297,0.0,0.0,85,0.00,,,0.56,Wunderground v.1.15,2013-04-09 04:10:00,
2013-04-08 23:15:00,40.2,36.1,29.97,West,280,0.0,0.0,85,0.00,,,0.56,Wunderground v.1.15,2013-04-09 04:15:00,
2013-04-08 23:20:00,40.2,36.1,29.97,SSW,211,0.0,0.0,85,0.00,,,0.56,Wunderground v.1.15,2013-04-09 04:20:00,
2013-04-08 23:25:00,40.1,36.0,29.97,SW,216,0.0,0.0,85,0.00,,,0.56,Wunderground v.1.15,2013-04-09 04:25:00,
2013-04-08 23:30:00,40.1,36.0,29.96,West,275,0.0,0.0,85,0.00,,,0.56,Wunderground v.1.15,2013-04-09 04:30:00,
2013-04-08 23:40:00,40.1,35.7,29.96,WSW,246,0.0,0.0,84,0.00,,,0.56,Wunderground v.1.15,2013-04-09 04:40:00,
2013-04-08 23:45:00,40.1,35.7,29.96,WSW,246,0.0,0.0,84,0.00,,,0.56,Wunderground v.1.15,2013-04-09 04:45:00,
2013-04-08 23:50:00,39.9,35.5,29.96,West,264,0.0,0.0,84,0.00,,,0.56,Wunderground v.1.15,2013-04-09 04:50:00,
2013-04-08 23:55:00,39.9,35.5,29.96,West,276,0.0,0.0,84,0.00,,,0.56,Wunderground v.1.15,2013-04-09 04:55:00,